[[{"header":{"parameterUnit":"m.s-1","parameterCategory":1,"la1":30.2991,"la2":30.254,"lo1":-89.0895,"lo2":-89.0444,"dy":0.0017,"dx":0.0017,"nx":28,"ny":28,"refTime":"2024-11-30T03:00:00:Z","depth":0,"parameterNumber":2,"parameterNumberName":"U-component_of_WINDS"},"data":[0,0,0,0,0,0,0,0,0,0,0,0,0,0,0,0,0,0,0,0,0,0,0,0,0,0,0,0,0,0,0,0,0,0,0,0,0,0,0,0,0,0,0,0,0,0,0,0,0,0,0,0,0,0,0,0,0,0,-1.2134,-1.2135,0,-1.2188,-1.2189,-1.2189,-1.2142,-1.214,-1.2138,-1.2136,-1.2193,-1.2197,-1.22,0,0,0,0,0,0,0,0,0,0,0,0,0,-1.1989,-1.1992,-1.2134,-1.2135,-1.2135,-1.2188,-1.2189,-1.219,-1.2142,-1.214,-1.2137,-1.2135,-1.2192,-1.2196,-1.22,0,0,0,0,0,0,0,0,0,0,0,0,0,-1.2049,-1.1993,-1.2134,-1.2118,-1.2117,-1.2188,-1.2189,-1.219,-1.2143,-1.214,-1.2137,-1.2134,-1.2191,-1.2196,-1.2201,-1.2291,0,0,-1.2216,-1.2218,0,0,0,0,0,0,0,0,-1.2045,-1.2054,-1.212,-1.2119,-1.2118,-1.2155,-1.2159,-1.2224,-1.2143,-1.2133,-1.2136,-1.2133,-1.2183,-1.2189,-1.2205,-1.2294,-1.2296,-1.2217,-1.222,-1.2222,-1.2223,0,0,0,0,0,0,0,-1.2041,-1.2052,-1.2155,-1.2121,-1.212,-1.2108,-1.2113,-1.2171,-1.2174,-1.2134,-1.213,-1.2137,-1.2182,-1.2201,-1.2206,-1.2297,-1.2217,-1.2221,-1.2224,-1.2226,-1.246,-1.2463,0,0,0,0,0,0,-1.2039,-1.2048,-1.2154,-1.2157,-1.2074,-1.2113,-1.2119,-1.2146,-1.2173,-1.2174,-1.214,-1.2135,-1.2194,-1.2201,-1.2208,-1.2315,-1.2222,-1.2227,-1.223,-1.2457,-1.2461,-1.2464,0,0,0,0,0,0,-1.2036,-1.2049,-1.2151,-1.2102,-1.2114,-1.2119,-1.215,-1.2149,-1.2167,-1.2178,-1.2178,-1.2158,-1.2191,-1.2201,-1.227,-1.2317,-1.2229,-1.2233,-1.2453,-1.2458,-1.2463,-1.253,0,0,0,0,0,0,-1.2032,-1.2048,-1.2082,-1.2103,-1.2117,-1.2213,-1.2153,-1.2152,-1.2176,-1.217,-1.2195,-1.2196,-1.219,-1.2263,-1.2275,-1.2322,-1.2237,-1.2449,-1.2456,-1.2461,-1.2524,-1.2537,-1.2547,0,0,0,0,0,-1.2027,-1.21,-1.2084,-1.2097,-1.216,-1.2216,-1.2224,-1.2214,-1.218,-1.2215,-1.2221,-1.2196,-1.2309,-1.2271,-1.2284,-1.2333,-1.2446,-1.2454,-1.2461,-1.2518,-1.2534,-1.2547,0,0,0,0,0,0,-1.2086,-1.2102,-1.2085,-1.2167,-1.219,-1.2208,-1.2251,-1.2231,-1.2265,-1.2259,-1.2246,-1.2252,-1.2325,-1.2335,-1.2292,-1.242,-1.2372,-1.2382,-1.2411,-1.2426,-1.2438,-1.2435,-1.2242,0,0,0,0,0,-1.2108,-1.2152,-1.2164,-1.2235,-1.2247,-1.2247,-1.2271,-1.2261,-1.2285,-1.2295,-1.2307,-1.2331,-1.2372,-1.2399,-1.2438,-1.2524,-1.2529,-1.2564,-1.2576,-1.2586,-1.2595,-1.2641,-1.2657,-1.2488,-1.2488,-1.2488,0,0,-1.2155,-1.2169,-1.2198,-1.2247,-1.2264,-1.2309,-1.2256,-1.2307,-1.234,-1.2303,-1.2369,-1.2378,-1.2404,-1.2482,-1.2517,-1.2493,-1.2642,-1.2595,-1.2602,-1.2607,-1.265,-1.2666,-1.268,-1.2493,-1.2492,-1.2491,0,0,-1.2264,-1.2279,-1.234,-1.2357,-1.2383,-1.2382,-1.2396,-1.2416,-1.2421,-1.2486,-1.2459,-1.2498,-1.2569,-1.2589,-1.2608,-1.2722,-1.27,-1.2734,-1.2797,-1.2842,-1.2855,-1.2867,-1.2908,-1.2923,-1.2743,-1.2744,-1.2744,0,-1.232,-1.2387,-1.2373,-1.2426,-1.2448,-1.2414,-1.2475,-1.2493,-1.253,-1.2546,-1.2519,-1.2606,-1.2621,-1.2703,-1.273,-1.2747,-1.2763,-1.2733,-1.2854,-1.2866,-1.2877,-1.2916,-1.2931,-1.2748,-1.2747,-1.2747,-1.2746,0,-1.2454,-1.2501,-1.2547,-1.2582,-1.2609,-1.2666,-1.2661,-1.2689,-1.2677,-1.2679,-1.2745,-1.2762,-1.2802,-1.2821,-1.2809,-1.2901,-1.2885,-1.2856,-1.2808,-1.2897,-1.2933,-1.2948,-1.2754,-1.2752,-1.2751,-1.275,0,0,-1.2605,-1.263,-1.2647,-1.2663,-1.2687,-1.2723,-1.2777,-1.2816,-1.2841,-1.2867,-1.2913,-1.2972,-1.2945,-1.2966,-1.2956,-1.2996,-1.3085,-1.2962,-1.2962,-1.2985,-1.3186,-1.3209,-1.3226,-1.3069,-1.3072,-1.3074,-1.3184,0,-1.2715,-1.281,-1.2798,-1.2888,-1.2931,-1.2899,-1.2946,-1.2966,-1.2968,-1.3005,-1.3008,-1.305,-1.3011,-1.3024,-1.3061,-1.3066,-1.3125,-1.3058,-1.3112,-1.3114,-1.3108,-1.3245,-1.327,-1.3373,-1.3198,-1.32,-1.3202,0,-1.2858,-1.2888,-1.2982,-1.2999,-1.3016,-1.3059,-1.3093,-1.3128,-1.315,-1.3149,-1.3172,-1.3154,-1.3208,-1.3157,-1.3231,-1.3185,-1.3206,-1.3212,-1.3215,-1.3222,-1.3165,-1.3256,-1.3406,-1.3422,-1.3224,-1.3223,-1.3221,0,-1.2959,-1.3023,-1.3087,-1.3101,-1.3122,-1.3153,-1.3163,-1.3181,-1.3205,-1.3234,-1.3249,-1.3284,-1.3304,-1.3332,-1.3324,-1.3287,-1.34,-1.3348,-1.3401,-1.3401,-1.3428,-1.3427,-1.3584,-1.3439,-1.3439,-1.3439,-1.3438,0,-1.3085,-1.3144,-1.3133,-1.3173,-1.3238,-1.3223,-1.3288,-1.3294,-1.331,-1.335,-1.3323,-1.3362,-1.3349,-1.3386,-1.338,-1.3442,-1.3451,-1.3452,-1.345,-1.3455,-1.3455,-1.347,-1.3463,-1.3443,-1.3442,-1.3441,-1.344,0,-1.321,-1.3205,-1.3273,-1.3286,-1.3291,-1.3338,-1.3349,-1.3387,-1.3386,-1.3437,-1.3448,-1.3447,-1.349,-1.3484,-1.3532,-1.3527,-1.3605,-1.3594,-1.3598,-1.3596,-1.3649,-1.3645,-1.3824,-1.3846,-1.3685,-1.3687,-1.3688,0,-1.3292,-1.3336,-1.3353,-1.3378,-1.339,-1.343,-1.3454,-1.344,-1.3465,-1.3492,-1.3526,-1.3565,-1.3597,-1.3666,-1.367,-1.3706,-1.3696,-1.3756,-1.3701,-1.3705,-1.3698,-1.3696,-1.37,-1.3767,-1.3769,-1.3771,-1.3772,0,-1.3437,-1.3431,-1.3466,-1.3499,-1.3528,-1.3553,-1.3576,-1.3598,-1.3586,-1.3616,-1.3658,-1.3683,-1.373,-1.377,-1.3803,-1.3813,-1.3791,-1.3788,-1.3803,-1.3809,-1.381,-1.3811,-1.3629,-1.3785,-1.3784,-1.3783,-1.3782,-1.3781,-1.3543,-1.3581,-1.3599,-1.3638,-1.3653,-1.3675,-1.371,-1.3713,-1.3748,-1.3785,-1.3774,-1.3823,-1.3841,-1.3883,-1.3897,-1.3934,-1.3912,-1.3933,-1.3938,-1.3944,-1.3951,-1.3803,-1.394,-1.394,-1.3939,-1.3939,-1.3939,0,-1.3688,-1.3697,-1.3733,-1.3765,-1.3795,-1.377,-1.3793,-1.3821,-1.3863,-1.3882,-1.3913,-1.3961,-1.3999,-1.4005,-1.404,-1.4069,-1.406,-1.4079,-1.4078,-1.408,-1.3968,-1.3952,-1.4086,-1.4086,-1.4086,-1.4086,-1.4086,-1.4086,-1.3767,-1.3829,-1.3826,-1.3895,-1.3903,-1.395,-1.3966,-1.3985,-1.4,-1.4055,-1.4086,-1.4089,-1.4102,-1.4138,-1.4171,-1.4172,-1.4187,-1.4211,-1.4207,-1.4103,-1.4088,-1.4074,-1.406,-1.4214,-1.4214,-1.4316,-1.4317,-1.4318]},{"header":{"parameterUnit":"m.s-1","parameterCategory":1,"la1":30.2991,"la2":30.254,"lo1":-89.0895,"lo2":-89.0444,"dy":0.0017,"dx":0.0017,"nx":28,"ny":28,"refTime":"2024-11-30T03:00:00:Z","depth":0,"parameterNumber":3,"parameterNumberName":"V-component_of_WINDS"},"data":[0,0,0,0,0,0,0,0,0,0,0,0,0,0,0,0,0,0,0,0,0,0,0,0,0,0,0,0,0,0,0,0,0,0,0,0,0,0,0,0,0,0,0,0,0,0,0,0,0,0,0,0,0,0,0,0,0,0,-7.7063,-7.7064,0,-7.718,-7.7181,-7.7182,-7.7031,-7.7025,-7.702,-7.7014,-7.713,-7.7138,-7.7146,0,0,0,0,0,0,0,0,0,0,0,0,0,-7.6704,-7.6711,-7.7063,-7.7064,-7.7066,-7.7179,-7.7181,-7.7183,-7.7031,-7.7025,-7.7018,-7.7012,-7.7127,-7.7137,-7.7147,0,0,0,0,0,0,0,0,0,0,0,0,0,-7.6844,-7.6713,-7.7062,-7.7004,-7.7,-7.7179,-7.7181,-7.7183,-7.7033,-7.7025,-7.7016,-7.7009,-7.7124,-7.7136,-7.7148,-7.7389,0,0,-7.7186,-7.7191,0,0,0,0,0,0,0,0,-7.6836,-7.6857,-7.7011,-7.7008,-7.7004,-7.7082,-7.7097,-7.7252,-7.7035,-7.702,-7.7014,-7.7005,-7.712,-7.7133,-7.7172,-7.7395,-7.7399,-7.7187,-7.7194,-7.72,-7.7203,0,0,0,0,0,0,0,-7.6827,-7.6851,-7.7109,-7.7013,-7.7009,-7.697,-7.6981,-7.7125,-7.7115,-7.7021,-7.701,-7.7026,-7.7117,-7.7161,-7.7174,-7.7401,-7.7187,-7.7197,-7.7205,-7.721,-7.7826,-7.7834,0,0,0,0,0,0,-7.6824,-7.6844,-7.7105,-7.7112,-7.6898,-7.6984,-7.6996,-7.7065,-7.7113,-7.7112,-7.7033,-7.7019,-7.7144,-7.716,-7.7178,-7.7463,-7.7199,-7.7211,-7.7218,-7.7817,-7.7828,-7.7837,0,0,0,0,0,0,-7.6817,-7.6849,-7.71,-7.6976,-7.7004,-7.6999,-7.7078,-7.7072,-7.7116,-7.7122,-7.7119,-7.7081,-7.7138,-7.716,-7.7338,-7.7465,-7.7217,-7.7228,-7.7806,-7.782,-7.7833,-7.8035,0,0,0,0,0,0,-7.6808,-7.6848,-7.694,-7.6979,-7.7012,-7.7261,-7.7086,-7.708,-7.7138,-7.712,-7.7166,-7.7166,-7.7133,-7.732,-7.735,-7.7477,-7.7237,-7.7795,-7.7812,-7.7828,-7.8017,-7.8054,-7.8086,0,0,0,0,0,-7.6795,-7.6992,-7.6946,-7.6978,-7.7128,-7.7268,-7.7287,-7.7247,-7.7149,-7.7241,-7.7245,-7.7164,-7.7446,-7.734,-7.7372,-7.7505,-7.7787,-7.7807,-7.7827,-7.8002,-7.8047,-7.8085,0,0,0,0,0,0,-7.6967,-7.6996,-7.6945,-7.716,-7.7213,-7.7243,-7.7358,-7.7296,-7.7377,-7.7357,-7.7302,-7.7314,-7.7504,-7.7521,-7.7403,-7.774,-7.76,-7.7627,-7.7722,-7.7764,-7.7798,-7.779,-7.7248,0,0,0,0,0,-7.703,-7.7143,-7.7161,-7.7349,-7.7379,-7.7365,-7.7424,-7.7389,-7.7441,-7.7462,-7.7479,-7.7532,-7.7631,-7.7699,-7.7791,-7.8019,-7.8026,-7.8126,-7.816,-7.8188,-7.8212,-7.8334,-7.8378,-7.7904,-7.7904,-7.7903,0,0,-7.7161,-7.7191,-7.7265,-7.7385,-7.7422,-7.7539,-7.7384,-7.7515,-7.7601,-7.7481,-7.7651,-7.7665,-7.772,-7.7924,-7.8014,-7.7944,-7.8345,-7.8213,-7.8236,-7.8245,-7.8359,-7.8404,-7.8444,-7.7918,-7.7915,-7.7913,0,0,-7.746,-7.7494,-7.7655,-7.7695,-7.7753,-7.7742,-7.7781,-7.782,-7.7826,-7.7995,-7.7908,-7.8008,-7.8182,-7.8225,-7.8269,-7.8584,-7.8512,-7.8615,-7.8794,-7.8913,-7.895,-7.8983,-7.9096,-7.9137,-7.864,-7.864,-7.8641,0,-7.7615,-7.779,-7.7744,-7.7882,-7.7936,-7.7835,-7.7996,-7.8037,-7.8122,-7.8162,-7.8082,-7.8298,-7.8328,-7.854,-7.8617,-7.8657,-7.8698,-7.861,-7.8949,-7.8981,-7.9011,-7.9118,-7.916,-7.8653,-7.8651,-7.865,-7.8649,0,-7.7978,-7.81,-7.8222,-7.8309,-7.8377,-7.8526,-7.8502,-7.8576,-7.8534,-7.8532,-7.8705,-7.8737,-7.8834,-7.8881,-7.8841,-7.9088,-7.9043,-7.8958,-7.8816,-7.907,-7.9169,-7.9209,-7.867,-7.8666,-7.8662,-7.8659,0,0,-7.8389,-7.8448,-7.8494,-7.8532,-7.8589,-7.8682,-7.8825,-7.8922,-7.8986,-7.9048,-7.9166,-7.9316,-7.9237,-7.9288,-7.9251,-7.9356,-7.9603,-7.9257,-7.9257,-7.9321,-7.9877,-7.9942,-7.999,-7.9556,-7.9563,-7.9569,-7.9872,0,-7.8688,-7.8938,-7.8901,-7.9141,-7.9254,-7.9159,-7.9283,-7.9331,-7.9332,-7.9426,-7.9425,-7.9532,-7.942,-7.945,-7.9549,-7.9553,-7.9714,-7.953,-7.9665,-7.967,-7.9655,-8.0042,-8.011,-8.0395,-7.9911,-7.9917,-7.9922,0,-7.9071,-7.9149,-7.9401,-7.944,-7.9486,-7.9599,-7.9684,-7.9776,-7.9827,-7.982,-7.9877,-7.9822,-7.9963,-7.9819,-8.0013,-7.9889,-7.9941,-7.9951,-7.9961,-7.9972,-7.9812,-8.0064,-8.0485,-8.0528,-7.9983,-7.9978,-7.9973,0,-7.9346,-7.9513,-7.9686,-7.9721,-7.9771,-7.9853,-7.9877,-7.992,-7.9981,-8.0055,-8.0093,-8.0182,-8.0231,-8.03,-8.027,-8.0168,-8.047,-8.0323,-8.0467,-8.0469,-8.0536,-8.0532,-8.0972,-8.0569,-8.0569,-8.0568,-8.0567,0,-7.9684,-7.9843,-7.981,-7.9917,-8.009,-8.0045,-8.0218,-8.023,-8.027,-8.0376,-8.0298,-8.0399,-8.0352,-8.045,-8.0426,-8.0591,-8.0613,-8.061,-8.0603,-8.0618,-8.0619,-8.0652,-8.0632,-8.0579,-8.0577,-8.0575,-8.0573,0,-8.0021,-8.0006,-8.0188,-8.0221,-8.0233,-8.0359,-8.0386,-8.0485,-8.048,-8.0615,-8.0644,-8.0635,-8.0745,-8.0722,-8.0843,-8.0827,-8.1033,-8.1,-8.1017,-8.1009,-8.1155,-8.1142,-8.1632,-8.1694,-8.1251,-8.1256,-8.1259,0,-8.0239,-8.0358,-8.0405,-8.0471,-8.0502,-8.0609,-8.0671,-8.063,-8.0697,-8.0765,-8.0856,-8.0959,-8.104,-8.122,-8.1224,-8.1315,-8.1284,-8.145,-8.1297,-8.1309,-8.1287,-8.1281,-8.1292,-8.148,-8.1485,-8.1489,-8.1493,0,-8.0627,-8.0613,-8.0705,-8.0796,-8.0872,-8.0941,-8.1002,-8.106,-8.1025,-8.1104,-8.1216,-8.1279,-8.1403,-8.1507,-8.1592,-8.1614,-8.1549,-8.154,-8.1579,-8.1596,-8.1601,-8.1601,-8.11,-8.1529,-8.1526,-8.1523,-8.1521,-8.152,-8.091,-8.1012,-8.1061,-8.1167,-8.1209,-8.1268,-8.1363,-8.1369,-8.1463,-8.1562,-8.1532,-8.166,-8.1707,-8.1815,-8.1848,-8.1946,-8.1884,-8.1939,-8.1954,-8.1968,-8.1986,-8.1585,-8.1961,-8.196,-8.1959,-8.1958,-8.1957,0,-8.1294,-8.1321,-8.1419,-8.1508,-8.1591,-8.1522,-8.1586,-8.1659,-8.1774,-8.1824,-8.1906,-8.2035,-8.2135,-8.2147,-8.2241,-8.2317,-8.229,-8.2344,-8.2338,-8.2344,-8.2036,-8.1994,-8.2365,-8.2365,-8.2365,-8.2364,-8.2364,-8.2364,-8.1504,-8.1673,-8.1666,-8.1854,-8.1879,-8.2006,-8.2048,-8.2102,-8.2141,-8.229,-8.2373,-8.2381,-8.2415,-8.2511,-8.2599,-8.26,-8.2638,-8.2705,-8.2694,-8.2406,-8.2366,-8.2327,-8.2287,-8.2713,-8.2714,-8.2993,-8.2995,-8.2997]}]]